Regional Weather Roundup
Issued by NWS Newport/Morehead, NC

Current Version | Previous Version | Graphics & Text | Print | Product List | Glossary Off
Versions: 1 2 3 4 5 6 7 8 9 10 11 12 13 14 15 16 17 18 19 20 21 22 23 24 25 26 27 28 29 30 31 32 33 34 35 36 37 38 39 40 41 42 43 44 45 46 47 48 49 50

069
ASUS42 KMHX 161214
RWRMHX
WEATHER ROUNDUP FOR EASTERN NORTH CAROLINA
NATIONAL WEATHER SERVICE NEWPORT/MOREHEAD CITY NC
800 AM EDT WED AUG 16 2017

NOTE: "FAIR" INDICATES FEW OR NO CLOUDS BELOW 12,000 FEET
WITH NO SIGNIFICANT WEATHER AND/OR OBSTRUCTIONS TO VISIBILITY

NCZ015>017-031-032-045>047-102-103-161300-
NORTH COAST

CITY           SKY/WX    TMP DP  RH WIND       PRES   REMARKS
EDENTON        CLOUDY    77  75  94 CALM      29.97R FOG
ELIZABETH CITY CLOUDY    77  77 100 NW6       29.97R
KITTY HAWK     SUNNY     77  76  98 CALM      29.94R
MANTEO         SUNNY     78  74  88 NE8       29.95R

$$

NCZ045>047-081-094-103-104-161300-
CENTRAL COAST

CITY           SKY/WX    TMP DP  RH WIND       PRES   REMARKS
FRISCO         MOSUNNY   81  78  91 VRB3      29.95R

$$

NCZ095-097-098-100-101-161300-
SOUTHERN COAST

CITY           SKY/WX    TMP DP  RH WIND       PRES   REMARKS
BEAUFORT       PTSUNNY   78  78 100 N10       29.96R
CEDAR ISLAND   NOT AVBL
JACKSONVILLE   LGT RAIN  76  76 100 NW9       29.97R
PINEY ISLAND   CLOUDY   N/A N/A N/A NW8       29.96R
WILMINGTON     SUNNY     79  76  90 NW6       29.97R


$$

NCZ011>013-027>030-043-044-078>080-089-090>093-098-161300-
COASTAL PLAIN

CITY           SKY/WX    TMP DP  RH WIND       PRES   REMARKS
AHOSKIE          N/A     74  73  97 CALM      29.98S
CLINTON        SUNNY     75  75 100 CALM      29.99R
ELIZABETHTOWN  NOT AVBL
GOLDSBORO      MOSUNNY   77  73  88 NW3       29.98R
GREENVILLE     CLOUDY    77  77 100 N3        30.00R FOG
HAVELOCK       CLOUDY    79  75  87 N6        29.97R
KENANSVILLE    CLOUDY    75  75 100 N3        29.99R FOG
KINSTON        PTSUNNY   75  75 100 NW5       29.99R FOG
NEW BERN       CLOUDY    76  76 100 N7        29.99R FOG
RICHLANDS      CLOUDY    75  75 100 N3        29.99R FOG
ROCKY MOUNT    PTSUNNY   74  74 100 N6        30.00R
WASHINGTON     CLOUDY    76  75  96 N3        29.98R
WHITEVILLE     SUNNY     78  76  95 CALM      29.98R

$$

AMZ130-135-150-152-154-156-158-170-250-252-270-ANZ085-086-088-633-658-670-161300-
MARINE OBSERVATIONS

STATION/POSITION TIME  TEMP    WIND        PRES    WAVE   SWELL
                       AIR SEA DIR/SP/G            HT/PER HT/PER
                 (UTC) (F)     (DEG/KT/KT) (MB)    (FT/S) (FT/S)
CHESAPEAKE LIGHT NOT AVBL
64 E VA BEACH    1150   77 78   10/  6/  6 1014.5    5/10   5/10
DUCK             1142   78 78   10/  7/  7 1013.9
2 E DUCK         1200      78                N/A     3/11   2/11
OREGON INLET     1142   78 81   10/  7/  9 1013.9
13E OREGON INLT  1148      79                N/A     3/11   3/11
HATTERAS CG      1142   80 83  360/ 12/ 13 1014.0
DIAMOND BUOY     1150   82 83  300/  8/  8 1013.8    3/10   3/10
CAPE LOOKOUT     1200   80     320/  8/  9 1014.2
BEAUFORT LAB     1142   78 81  330/  7/  9 1013.9
30 SE NEW RVR IN 1108   80 83  340/  6/  8 1014.0
30 SE NEW RVR IN 1143      83                N/A     3/ 5
27 SE WRIGHTSVLE 1108   82 83  330/  4/  8 1014.0
5 SE WRIGHTSVLE  1108   80 83  360/  8/ 12 1014.0
225 S CAPE HAT   1150   84 83  250/ 14/ 17 1015.8    5/ 6   2/ 9
41 SE CHARLESTON 1200   83 83  270/ 10/ 12 1015.5

$$




USA.gov is the U.S. government's official web portal to all federal, state and local government web resources and services.